User: anonymous   Login
Location: Vancouver
(49.2500°N, 123.1330°W)
Time: 04:55:38
(UTC-08:00)
Language:

CZ-2C R/B - Orbit

View from above orbital plane
View from above orbital plane
View from above satellite
View from above satellite

Ground track
Ground track

The orbit data is extracted from the following two-line orbital elements,

1 28480U 04046B   14353.92053060  .00000273  00000-0  11927-3 0  5134
2 28480 098.1129 135.8677 0142809 033.0857 123.0151 14.25408457524544
Epoch (UTC): 19 December 2014 22:05:33
Eccentricity: 0.0142809
inclination: 98.1129°
perigee height: 704 km
apogee height: 910 km
right ascension of ascending node: 135.8677°
argument of perigee: 33.0857°
revolutions per day: 14.25408457
mean anomaly at epoch: 123.0151°
orbit number at epoch: 52454

The dashed part of the orbit path shows where the satellite is in the earth's shadow,  

DLR